Temp
70 77 75 72 58 56 50 61 75 76 76 85 88 85 79 83 78 64 84 86 84 80 79 81 80 80 80 79 79 79 79 78 78 79 79 79 79 79 79 79 80 80 81 81 81 81 81 81 81
70 77 74 67 54 45 52 70 69 75 81 85 87 86 81 78 87 85 84 87 85 81 79 79 80 80 80 79 79 79 79 78 78 79 79 79 79 79 79 79 80 80 81 81 81 81 81 81 81
73 78 63 59 52 49 54 69 73 77 85 86 82 90 84 80 88 86 90 89 86 81 81 79 79 79 80 79 79 79 79 79 79 79 79 79 79 79 79 79 80 80 81 81 81 81 80 81 81
72 69 67 54 52 61 67 74 79 77 82 85 83 80 86 90 89 89 94 89 86 83 80 79 79 79 80 79 79 79 79 79 79 79 79 79 79 78 78 79 79 80 81 81 81 80 80 80 80
70 65 53 49 56 67 76 78 75 74 76 79 84 79 79 87 92 90 91 94 85 83 78 79 79 79 79 79 79 79 79 78 79 79 79 79 78 78 78 79 79 80 80 80 80 80 80 80 79
62 63 50 48 59 71 76 73 76 75 77 79 78 78 77 87 88 88 91 88 86 80 79 79 79 79 79 79 79 78 78 78 78 78 79 79 78 78 78 79 79 79 79 79 80 79 80 79 79
57 54 51 56 62 68 74 74 71 72 74 76 79 74 76 84 87 90 88 86 83 83 78 78 78 79 79 78 78 78 78 78 78 78 78 78 78 78 78 78 79 79 79 79 79 79 79 79 79
65 58 54 57 61 63 73 75 71 75 75 85 85 71 67 77 87 86 86 86 84 81 79 76 76 77 77 77 79 78 78 78 78 78 78 78 78 78 78 77 78 79 78 79 79 79 79 78 78
70 53 49 56 59 63 70 68 76 81 76 78 81 79 83 86 85 80 78 85 81 81 79 77 77 77 77 77 79 79 78 78 78 78 78 76 75 76 77 77 78 78 78 79 78 78 78 78 78
62 50 55 67 65 61 69 69 71 73 73 73 77 83 85 86 81 79 76 76 81 78 80 80 79 77 78 82 78 78 77 76 76 76 75 74 73 72 78 77 78 78 78 78 78 78 78 78 76
63 55 66 70 69 70 68 68 73 70 65 71 71 77 81 80 78 76 77 75 74 78 82 82 81 80 80 81 76 76 76 75 75 76 75 75 77 76 76 73 76 72 76 73 75 74 74 74 76
60 69 70 71 74 68 67 71 69 70 70 78 79 79 79 78 76 76 75 76 77 78 78 81 82 80 81 82 76 77 77 76 75 76 75 75 74 76 74 74 73 72 71 70 70 72 75 75 79
62 67 72 72 70 69 72 69 69 70 77 80 80 81 77 75 74 75 76 76 76 75 74 80 82 80 82 81 78 78 78 77 77 77 76 76 73 75 76 76 75 74 72 72 72 74 77 77 81
66 68 69 70 69 69 68 70 69 72 78 78 79 77 77 77 76 75 74 73 75 76 74 78 79 78 76 79 79 79 79 78 77 78 78 77 77 76 78 78 77 75 76 76 77 78 77 78 79
66 59 66 69 72 68 73 65 67 75 77 75 77 77 77 76 77 75 75 74 73 75 76 75 77 76 75 74 79 72 75 79 79 78 77 78 77 76 80 79 75 79 76 77 77 78 77 77 79
60 58 51 67 72 72 68 55 70 76 75 73 76 78 78 75 77 76 76 75 74 74 75 75 82 75 76 72 76 78 74 80 80 80 78 79 77 76 76 77 76 77 76 76 77 77 76 76 75
55 47 54 60 69 69 65 59 71 75 73 70 72 73 76 74 74 74 76 75 75 75 74 75 73 75 74 77 71 76 80 70 80 81 80 79 80 78 76 75 75 76 76 76 77 76 76 74 73
50 51 54 54 65 67 61 60 69 73 72 72 73 72 72 72 73 75 73 75 74 74 73 73 74 73 73 73 71 74 78 77 74 77 81 80 80 78 74 74 74 74 73 74 75 75 73 72 73
60 56 54 61 68 60 58 61 66 72 71 68 67 68 68 69 72 75 76 75 74 71 70 70 71 68 69 69 70 70 69 71 73 77 82 80 79 78 74 73 72 73 73 73 74 72 72 70 71
61 56 54 61 67 63 60 60 67 70 69 67 66 65 66 67 69 72 72 72 72 74 70 68 70 71 68 69 68 70 70 70 72 76 79 80 78 77 75 73 72 72 72 72 72 72 70 69 69
58 55 56 55 61 62 60 56 61 63 67 67 67 67 67 66 66 69 72 71 71 70 70 70 69 70 72 69 70 69 67 70 70 71 71 76 79 77 77 74 72 72 72 72 72 71 70 66 66
52 63 62 60 54 45 57 43 55 55 58 62 61 63 62 63 65 67 70 70 71 71 71 71 71 71 70 68 69 71 69 68 70 70 71 73 78 76 75 75 73 72 71 71 71 73 70 68 64
56 64 61 58 53 46 49 41 47 58 54 55 58 60 61 61 61 63 63 70 69 67 65 70 71 72 71 71 71 69 69 73 75 68 70 71 76 74 76 74 73 72 72 71 71 70 68 67 65
67 60 56 53 49 33 46 44 42 46 51 54 58 60 61 60 60 61 64 67 68 69 69 66 66 69 71 70 70 70 70 69 69 66 68 70 70 69 72 75 72 70 70 71 69 67 64 63 63
59 47 31 31 30 34 50 41 41 54 57 56 56 57 58 59 58 58 58 60 63 64 66 67 67 68 70 66 70 70 70 70 69 68 68 69 68 68 67 71 70 70 70 69 67 65 63 61 60
54 50 34 26 25 34 49 37 44 59 58 58 58 57 58 57 57 57 58 59 60 63 65 65 64 66 70 70 69 70 71 71 69 69 69 69 69 68 69 70 69 69 68 67 66 65 62 61 60
54 43 49 34 38 29 40 45 52 57 56 56 55 56 55 55 56 57 57 58 60 62 63 64 61 63 69 70 70 69 70 71 70 68 69 71 69 69 71 70 68 68 67 66 64 63 60 59 58
56 58 41 38 26 25 39 40 38 49 49 52 51 52 55 55 56 55 56 58 59 63 66 65 64 64 69 71 72 70 70 72 71 69 69 72 71 72 69 68 67 66 65 64 63 60 59 58 58
48 47 49 42 36 28 29 34 49 49 51 47 49 53 54 54 54 54 56 57 59 63 62 62 62 62 70 72 72 70 70 71 70 69 71 70 70 69 68 68 66 64 61 60 58 57 57 57 57
59 51 47 32 33 36 36 36 53 56 53 49 50 53 55 55 54 55 55 58 60 60 61 63 61 63 64 68 70 70 69 70 70 68 71 69 67 67 67 65 62 61 59 58 57 56 56 56 54
MSLP
1009.38 1008.85 1008.96 1009.10 1009.55 1008.86 1008.03 1005.07 1002.69 1000.79 1000.18 999.24 997.97 998.55 1000.41 1000.97 1001.70 1003.50 1003.57 1003.37 1003.85 1004.88 1005.51 1005.84 1005.85 1006.37 1007.12 1007.24 1007.51 1008.13 1008.48 1008.89 1009.58 1010.01 1010.29 1010.57 1010.95 1011.63 1011.96 1012.02 1011.96 1012.09 1012.24 1012.41 1012.59 1012.68 1012.74 1012.81 1012.81
1009.53 1009.09 1008.85 1008.89 1009.37 1008.97 1006.82 1003.97 1002.96 1000.83 999.75 998.86 998.41 998.99 999.97 1001.81 1002.34 1003.11 1003.34 1004.09 1004.26 1004.76 1005.36 1005.89 1006.19 1006.39 1006.91 1007.60 1007.77 1008.24 1008.72 1008.99 1009.36 1010.20 1010.50 1010.89 1011.16 1011.34 1011.99 1012.26 1012.31 1012.35 1012.45 1012.56 1012.63 1012.78 1012.83 1012.85 1012.88
1009.65 1009.42 1009.45 1009.07 1008.79 1008.17 1005.97 1003.43 1002.35 1000.63 999.46 999.15 999.04 998.81 1000.04 1001.62 1002.05 1002.92 1002.91 1003.68 1004.37 1004.85 1005.22 1005.82 1006.36 1006.69 1006.99 1007.19 1007.83 1008.41 1008.80 1009.19 1009.27 1009.96 1010.68 1011.01 1011.31 1011.65 1011.74 1012.28 1012.51 1012.44 1012.46 1012.65 1012.72 1012.71 1012.80 1012.93 1012.92
1009.42 1009.33 1009.09 1008.61 1008.13 1006.45 1004.93 1002.88 1001.95 1000.69 1000.12 999.53 999.58 1000.14 1000.90 1001.49 1001.84 1002.41 1002.52 1003.28 1004.19 1004.88 1005.22 1005.87 1006.41 1006.90 1007.22 1007.36 1007.59 1008.40 1009.03 1009.44 1009.46 1009.70 1010.47 1010.96 1011.37 1011.75 1012.07 1012.15 1012.43 1012.68 1012.68 1012.57 1012.71 1012.85 1012.91 1012.92 1012.99
1009.51 1009.39 1009.55 1008.87 1007.56 1005.42 1003.67 1002.25 1001.21 1000.90 1000.55 1000.37 1000.27 1000.86 1001.77 1002.02 1002.02 1002.51 1002.55 1002.93 1003.95 1005.02 1005.28 1005.74 1006.39 1006.86 1007.36 1007.54 1007.75 1008.20 1008.91 1009.41 1009.61 1009.81 1010.47 1010.95 1011.33 1011.63 1012.08 1012.41 1012.57 1012.65 1012.76 1012.77 1012.79 1012.84 1012.93 1012.97 1012.89
1009.43 1009.11 1009.54 1009.02 1007.12 1005.03 1003.63 1002.14 1001.27 1001.16 1001.05 1000.97 1001.48 1001.71 1002.04 1002.14 1002.49 1002.71 1002.70 1002.83 1003.63 1004.44 1005.12 1005.33 1006.09 1006.77 1007.30 1007.83 1007.97 1008.21 1008.74 1009.39 1009.69 1009.76 1010.31 1010.83 1011.24 1011.61 1011.85 1012.21 1012.45 1012.59 1012.72 1012.82 1012.83 1012.80 1012.82 1012.83 1012.71
1009.37 1009.60 1009.35 1008.49 1007.09 1004.99 1003.93 1001.83 1001.83 1001.68 1001.78 1001.97 1002.33 1002.56 1003.29 1002.87 1003.04 1003.03 1002.91 1003.25 1003.95 1004.31 1004.87 1005.53 1005.99 1006.46 1007.13 1007.79 1008.27 1008.53 1008.74 1009.14 1009.71 1009.94 1010.14 1010.67 1011.21 1011.59 1011.87 1012.11 1012.35 1012.49 1012.59 1012.84 1012.91 1012.97 1012.92 1012.81 1012.53
1008.34 1008.90 1009.06 1008.16 1007.09 1005.14 1004.50 1003.11 1002.53 1002.19 1002.30 1002.13 1002.53 1003.19 1003.69 1003.38 1003.34 1003.53 1003.39 1003.09 1004.15 1004.80 1004.90 1005.49 1006.05 1006.45 1006.95 1007.61 1008.23 1008.54 1008.92 1009.13 1009.50 1009.94 1010.27 1010.55 1010.97 1011.39 1011.79 1012.09 1012.29 1012.39 1012.57 1012.67 1012.82 1012.97 1013.01 1012.78 1012.53
1007.51 1008.69 1008.83 1007.69 1006.68 1005.83 1004.63 1004.46 1003.68 1003.10 1002.99 1003.00 1002.94 1003.16 1002.95 1002.77 1003.08 1003.44 1003.80 1003.77 1003.61 1004.71 1004.74 1005.04 1005.55 1006.05 1006.27 1006.99 1007.97 1008.46 1008.84 1009.13 1009.41 1009.93 1010.34 1010.69 1011.05 1011.32 1011.64 1011.91 1012.09 1012.26 1012.39 1012.52 1012.58 1012.62 1012.76 1012.73 1012.43
1007.77 1008.30 1007.68 1006.82 1006.04 1005.79 1005.24 1005.04 1004.55 1004.05 1003.88 1003.81 1003.66 1003.14 1003.19 1002.98 1003.31 1003.81 1004.09 1004.31 1004.03 1005.03 1004.93 1004.95 1005.41 1005.87 1006.30 1006.63 1007.36 1008.23 1008.74 1009.14 1009.33 1009.64 1010.17 1010.67 1011.12 1011.37 1011.51 1011.77 1011.85 1012.03 1012.17 1012.29 1012.34 1012.29 1012.27 1012.44 1012.32
1007.02 1007.49 1007.09 1006.27 1005.68 1005.50 1005.57 1005.37 1004.98 1004.74 1004.74 1004.42 1004.33 1004.09 1003.73 1003.63 1003.82 1004.13 1004.38 1004.62 1004.93 1004.26 1004.32 1004.53 1005.05 1005.30 1005.69 1006.31 1007.02 1007.84 1008.48 1008.96 1009.30 1009.43 1009.79 1010.21 1010.63 1011.13 1011.34 1011.67 1011.70 1011.83 1012.02 1012.17 1012.14 1012.05 1012.02 1012.10 1011.94
1006.80 1006.77 1006.47 1006.03 1005.39 1005.34 1005.58 1005.15 1004.98 1004.87 1004.53 1004.28 1004.04 1003.90 1003.92 1004.13 1004.17 1004.39 1004.47 1004.61 1004.57 1004.30 1004.51 1004.55 1004.39 1004.65 1005.03 1005.54 1006.53 1007.33 1008.01 1008.42 1009.04 1009.23 1009.59 1009.84 1010.26 1010.69 1010.94 1011.28 1011.43 1011.57 1011.64 1011.83 1011.93 1011.84 1011.76 1011.80 1011.58
1007.12 1006.93 1006.46 1005.72 1005.45 1005.28 1005.17 1005.09 1004.83 1004.51 1004.17 1003.74 1003.61 1003.59 1003.75 1004.01 1004.25 1004.25 1004.39 1004.41 1004.28 1004.32 1004.29 1004.41 1004.84 1005.05 1004.72 1005.21 1005.90 1006.68 1007.39 1007.89 1008.37 1008.70 1009.11 1009.50 1009.84 1010.13 1010.43 1010.72 1010.90 1010.97 1011.19 1011.39 1011.51 1011.45 1011.52 1011.49 1011.26
1007.77 1007.29 1006.58 1005.92 1005.41 1005.20 1005.16 1004.77 1004.62 1003.94 1003.48 1003.49 1003.32 1003.28 1003.21 1003.39 1003.75 1003.90 1004.19 1004.43 1004.45 1004.02 1003.90 1004.16 1004.35 1004.51 1005.37 1005.72 1005.44 1005.84 1006.55 1007.08 1007.55 1008.09 1008.33 1008.77 1009.09 1009.56 1009.90 1010.09 1010.27 1010.45 1010.55 1010.71 1010.79 1010.81 1010.96 1011.15 1010.90
1008.08 1007.83 1006.81 1005.61 1004.97 1004.75 1004.20 1004.49 1003.94 1002.86 1002.83 1002.98 1002.89 1002.83 1002.77 1002.92 1003.05 1003.46 1003.52 1003.75 1004.04 1003.97 1003.57 1004.21 1004.02 1004.46 1005.11 1005.29 1005.58 1005.63 1005.84 1006.44 1006.85 1007.38 1007.73 1008.05 1008.39 1008.80 1009.13 1009.40 1009.76 1009.83 1009.92 1010.14 1010.33 1010.40 1010.49 1010.51 1010.78
1008.25 1008.06 1007.33 1004.79 1004.57 1003.89 1004.31 1004.07 1003.05 1002.29 1002.16 1002.39 1002.09 1002.09 1002.13 1002.05 1002.16 1002.32 1002.57 1002.74 1002.93 1003.24 1003.66 1003.61 1003.79 1004.16 1004.45 1005.07 1005.29 1005.55 1005.41 1005.90 1006.30 1006.67 1007.03 1007.41 1007.74 1008.12 1008.54 1008.69 1008.92 1009.11 1009.44 1009.89 1009.97 1010.03 1010.21 1010.50 1010.69
1007.80 1007.99 1007.11 1005.82 1004.46 1003.87 1003.60 1003.36 1002.64 1002.09 1002.14 1002.17 1002.11 1001.85 1001.77 1001.71 1001.68 1001.58 1001.75 1002.04 1002.25 1002.47 1002.94 1003.23 1003.53 1003.76 1004.17 1004.41 1005.00 1005.28 1005.59 1005.27 1005.82 1006.08 1006.46 1006.83 1007.11 1007.51 1008.09 1008.37 1008.50 1008.54 1009.13 1009.46 1009.46 1009.87 1010.17 1010.63 1010.98
1008.07 1007.52 1006.65 1006.08 1004.83 1004.11 1004.07 1003.69 1003.01 1002.17 1002.21 1002.11 1002.23 1002.17 1002.42 1002.67 1002.90 1002.56 1002.37 1001.98 1001.71 1001.96 1002.37 1002.68 1002.82 1003.30 1003.58 1004.13 1004.73 1005.04 1005.31 1005.46 1005.48 1005.71 1005.83 1006.07 1006.53 1006.87 1007.59 1008.10 1008.35 1008.63 1009.14 1009.37 1009.48 1009.86 1010.36 1010.63 1010.83
1007.33 1007.21 1006.95 1005.88 1004.96 1004.74 1004.52 1004.03 1003.20 1002.31 1002.46 1003.37 1003.44 1003.14 1003.41 1003.62 1003.59 1003.05 1002.92 1002.33 1002.19 1002.44 1002.31 1002.45 1002.65 1002.97 1003.48 1004.07 1004.50 1005.11 1005.36 1005.22 1005.09 1005.50 1005.41 1005.45 1005.93 1006.25 1006.95 1007.67 1008.11 1008.62 1008.99 1009.08 1009.61 1009.99 1010.39 1010.86 1011.03
1006.89 1006.87 1006.60 1005.71 1005.17 1005.09 1004.95 1004.53 1003.18 1002.52 1003.65 1003.87 1004.22 1004.33 1004.49 1004.37 1004.05 1003.68 1003.54 1003.17 1002.76 1002.28 1002.31 1002.28 1002.15 1002.27 1002.76 1003.41 1003.99 1004.53 1005.67 1005.28 1005.00 1004.85 1004.72 1004.99 1005.17 1005.66 1006.37 1006.99 1007.67 1008.26 1008.73 1009.02 1009.49 1009.84 1010.63 1011.13 1011.32
1006.59 1006.76 1006.65 1006.44 1005.86 1005.69 1005.44 1004.79 1004.01 1004.31 1004.05 1004.43 1004.62 1005.00 1005.09 1005.52 1005.35 1004.73 1003.98 1003.35 1002.91 1002.33 1001.92 1001.73 1001.69 1001.62 1001.74 1002.32 1003.20 1003.92 1003.91 1005.75 1005.51 1004.96 1005.10 1004.75 1005.02 1005.23 1005.77 1006.48 1007.09 1007.71 1008.38 1009.03 1009.25 1009.77 1010.40 1011.27 1011.66
1006.73 1006.74 1006.71 1006.59 1006.66 1006.60 1006.02 1005.53 1005.31 1005.53 1005.61 1005.49 1005.97 1006.47 1006.81 1006.40 1005.59 1004.98 1004.18 1003.36 1002.92 1002.29 1001.71 1001.33 1000.71 1000.63 1000.88 1001.33 1002.17 1002.98 1003.95 1004.44 1004.46 1004.88 1005.37 1005.03 1003.90 1004.69 1005.28 1006.06 1006.59 1007.27 1007.86 1008.71 1009.02 1009.41 1010.14 1010.90 1011.68
1006.86 1006.57 1006.68 1006.92 1007.13 1007.29 1007.76 1007.46 1006.70 1006.49 1006.92 1007.13 1007.34 1007.44 1007.30 1006.82 1006.42 1005.49 1004.67 1003.42 1002.57 1002.23 1001.72 1001.29 1000.78 999.80 1000.02 1000.60 1000.95 1001.77 1002.87 1003.24 1003.02 1003.85 1004.61 1005.01 1003.61 1003.97 1004.99 1005.75 1006.51 1007.08 1007.62 1008.27 1008.73 1009.35 1010.01 1010.60 1011.33
1006.61 1007.03 1007.43 1007.85 1008.05 1008.65 1008.70 1008.97 1008.13 1008.08 1008.17 1007.99 1007.75 1007.52 1007.01 1006.83 1006.25 1005.33 1004.52 1003.46 1002.44 1001.75 1001.23 1000.78 1000.30 999.76 999.13 999.59 1000.07 1000.66 1001.51 1002.35 1002.79 1003.21 1003.54 1003.45 1003.47 1003.95 1004.82 1005.48 1006.28 1007.00 1007.64 1008.25 1009.15 1009.77 1010.27 1010.88 1011.60
1007.16 1008.07 1009.85 1010.47 1010.40 1010.46 1008.97 1009.34 1008.91 1008.63 1008.42 1008.65 1008.52 1008.24 1007.73 1007.05 1006.34 1005.49 1004.60 1003.68 1002.55 1001.53 1000.37 1000.29 999.98 999.13 998.67 998.77 999.18 999.67 1000.20 1001.01 1001.72 1001.97 1002.41 1002.93 1003.65 1004.09 1004.81 1005.17 1006.21 1007.17 1007.70 1008.39 1009.09 1009.95 1010.71 1011.09 1011.98
1007.99 1009.60 1011.65 1012.71 1012.73 1011.86 1009.69 1009.43 1008.90 1008.52 1008.81 1008.85 1008.72 1008.23 1007.47 1007.15 1006.55 1005.58 1004.56 1003.51 1002.41 1001.21 1000.19 999.46 999.52 998.53 998.13 997.77 998.23 998.71 999.23 999.93 1000.49 1001.23 1001.54 1002.35 1003.03 1003.87 1004.77 1005.40 1006.35 1007.20 1007.83 1008.76 1009.25 1010.14 1011.02 1011.57 1012.22
1008.27 1009.73 1011.02 1013.07 1013.41 1013.11 1010.79 1009.69 1008.94 1008.64 1008.40 1008.35 1008.58 1008.13 1007.34 1006.66 1005.95 1004.90 1003.89 1003.05 1002.01 1000.52 998.89 998.21 998.25 997.90 997.30 997.28 997.48 998.05 998.45 999.10 999.87 1000.72 1001.03 1001.78 1002.85 1003.68 1004.59 1005.48 1006.55 1007.28 1008.08 1008.75 1009.51 1010.35 1011.34 1012.28 1012.93
1008.81 1010.31 1011.50 1013.11 1014.25 1013.61 1011.50 1010.39 1009.82 1009.11 1009.25 1009.05 1008.39 1007.77 1007.17 1006.61 1005.84 1004.82 1003.63 1002.52 1001.15 999.15 996.57 996.53 996.75 996.94 996.36 996.28 996.54 997.10 997.63 998.14 998.96 1000.04 1000.51 1001.15 1002.22 1003.06 1004.26 1005.34 1006.49 1007.41 1008.19 1009.08 1009.92 1010.90 1011.59 1012.16 1013.17
1009.95 1011.01 1011.39 1012.36 1013.62 1014.13 1013.04 1011.15 1009.81 1009.58 1009.37 1009.26 1008.87 1008.28 1007.72 1007.00 1006.03 1004.87 1003.31 1002.01 1000.72 998.75 997.00 995.92 995.25 995.47 994.55 994.89 995.72 996.40 997.01 997.54 998.44 999.22 999.67 1000.88 1001.47 1002.79 1003.83 1005.00 1006.23 1007.29 1008.61 1009.59 1010.61 1011.53 1012.00 1012.50 1013.07
1010.07 1010.50 1010.89 1012.41 1013.39 1013.69 1013.18 1011.61 1009.63 1009.36 1009.35 1009.27 1008.77 1008.35 1007.74 1007.19 1006.16 1004.90 1003.61 1001.99 1000.56 999.16 997.10 995.46 994.90 994.95 994.68 994.58 995.23 995.79 996.67 997.14 997.79 998.60 999.17 1000.59 1000.87 1002.55 1003.86 1005.22 1006.25 1007.47 1009.01 1010.21 1010.86 1011.64 1012.44 1013.19 1013.79
Wind_Speed
8 8 2 3 5 5 5 11 13 19 3 5 7 12 21 15 6 8 1 13 18 14 12 11 18 18 15 17 18 16 18 18 15 14 14 13 13 10 9 9 12 12 13 12 10 9 7 6 5
5 7 2 3 4 1 8 13 11 10 2 8 9 9 18 15 14 6 4 12 15 15 11 10 14 18 19 15 15 16 16 18 18 14 13 12 12 14 10 9 10 11 11 10 9 8 6 5 4
4 4 2 5 4 6 7 5 7 3 8 8 6 5 8 6 7 6 6 18 16 13 12 12 14 15 17 20 17 15 16 17 19 17 13 13 12 11 12 9 8 10 11 9 8 7 6 4 2
3 3 5 2 9 12 15 16 9 5 7 6 4 7 7 6 4 9 6 20 14 13 12 14 14 13 14 17 19 16 14 15 18 19 16 14 12 11 9 10 10 8 8 9 7 5 4 4 1
2 2 1 3 8 14 15 10 2 5 4 6 5 7 8 4 10 7 8 13 16 13 13 14 15 13 13 15 17 18 16 15 17 18 16 15 14 13 11 9 8 8 7 6 6 5 4 3 2
3 2 2 5 12 14 12 3 4 5 8 8 10 6 4 7 11 7 8 4 16 16 13 15 18 15 13 12 15 17 17 15 16 18 17 16 14 13 12 10 9 8 7 6 6 6 5 4 5
3 1 6 8 12 13 7 1 4 5 7 6 4 6 4 11 9 7 8 6 14 15 14 11 11 14 15 13 12 13 16 17 15 16 17 17 15 13 13 12 10 9 8 7 6 6 5 6 9
4 2 7 8 9 14 9 10 3 6 4 8 5 3 3 1 9 8 9 9 10 10 12 12 10 10 10 10 13 14 14 16 16 16 16 17 16 15 13 12 11 10 9 9 8 8 8 8 11
2 4 4 7 4 7 9 9 8 6 3 3 4 2 8 9 5 5 5 9 6 12 13 14 14 12 13 12 10 13 16 16 16 14 15 12 6 9 11 11 12 11 11 9 9 9 9 10 11
5 4 8 4 4 5 9 9 10 8 9 7 7 11 6 9 8 7 5 5 10 11 12 13 13 13 12 10 11 9 9 7 8 10 10 6 6 5 9 10 13 12 11 10 11 10 11 9 4
5 6 8 9 4 6 7 8 7 9 7 7 7 7 11 6 9 8 8 5 6 6 7 15 15 15 14 11 8 6 5 5 5 10 11 9 7 7 6 4 5 4 9 4 6 6 4 6 5
4 7 7 9 8 5 7 8 6 5 9 8 10 8 6 9 8 8 8 8 8 9 6 6 16 15 15 9 10 9 7 7 7 7 10 8 5 7 5 5 6 6 4 6 6 4 5 7 9
7 7 10 10 9 8 10 8 9 10 11 10 9 9 8 6 7 6 8 8 8 8 3 5 4 8 13 12 11 10 9 8 8 8 10 8 5 7 7 8 7 7 5 6 6 6 6 6 8
8 13 13 9 12 10 12 13 5 8 11 10 9 11 10 10 10 6 7 7 8 9 7 4 7 11 8 6 14 11 10 11 9 8 10 12 8 6 8 8 9 7 7 7 8 8 6 6 4
8 10 15 17 19 12 12 11 10 16 12 12 14 10 10 10 9 11 10 8 8 8 9 5 8 9 7 7 11 8 9 10 10 9 10 13 10 8 11 9 6 9 6 8 5 4 4 4 3
8 6 7 17 13 10 6 8 11 11 8 11 11 9 10 12 13 10 11 10 9 8 8 5 4 7 9 7 6 8 9 9 9 9 9 14 11 8 7 7 5 6 4 5 4 3 3 3 3
3 5 8 9 9 8 5 10 8 10 7 7 8 10 11 10 11 11 11 11 11 10 9 8 7 7 9 8 7 6 12 7 10 9 10 14 13 8 6 5 5 5 2 4 3 2 3 2 1
7 9 9 7 12 13 10 8 13 14 11 13 11 7 5 9 6 7 9 6 9 9 9 9 7 8 8 5 4 5 7 10 5 9 11 15 12 9 6 5 6 4 4 3 2 3 2 3 3
5 6 9 15 13 6 7 12 18 17 12 10 13 17 19 18 15 16 8 5 6 6 7 9 9 9 4 3 4 2 6 4 9 9 14 17 13 12 9 5 5 5 5 5 6 4 4 4 1
8 9 10 7 13 11 13 17 22 20 8 13 17 17 16 17 19 18 16 11 7 6 9 8 9 10 7 5 3 3 4 6 6 6 12 16 14 12 10 8 6 7 4 6 5 6 2 2 1
7 7 10 11 11 8 14 11 9 5 18 16 16 14 16 17 19 19 19 15 13 9 9 10 11 12 11 9 7 7 6 14 10 8 4 12 14 13 13 10 7 7 6 5 5 5 6 3 1
5 9 14 13 10 8 4 15 9 6 11 12 14 16 16 17 19 18 21 17 16 13 10 12 14 15 12 10 9 12 14 16 15 9 6 9 16 14 12 12 8 8 5 6 5 5 4 5 4
8 14 14 7 12 5 10 6 7 15 13 13 13 14 13 13 17 19 21 22 8 7 8 10 14 16 13 11 11 11 12 13 11 6 14 16 11 13 12 11 7 8 6 6 7 6 6 3 4
11 11 8 8 5 5 6 6 7 4 8 12 14 15 18 16 20 19 19 19 16 13 13 8 9 15 15 13 13 15 16 13 11 7 10 8 6 6 9 11 7 6 7 9 8 8 8 7 6
8 5 5 7 7 4 12 6 3 7 9 12 14 15 16 15 18 21 21 20 20 23 22 14 12 16 15 13 13 15 16 15 15 11 9 8 6 6 8 8 7 8 10 11 11 11 9 7 6
7 7 5 3 2 7 14 4 1 3 9 8 10 14 17 16 17 18 20 21 21 23 25 21 16 12 16 17 16 13 14 11 11 11 11 9 8 10 9 8 11 12 14 12 12 10 8 9 8
5 5 6 5 4 2 5 2 3 10 13 15 16 16 20 22 22 21 22 19 20 22 24 20 12 12 13 17 14 14 14 15 12 12 14 12 10 12 11 14 14 13 14 14 13 10 10 10 8
4 2 5 4 3 5 5 6 1 13 11 11 16 17 19 22 23 23 22 22 21 23 19 15 15 16 19 19 15 14 16 15 14 13 16 17 16 17 17 17 16 15 15 14 14 11 10 12 8
7 3 6 4 3 3 5 6 2 6 10 8 12 15 18 20 21 21 23 21 21 18 9 9 12 7 19 20 16 15 14 15 14 13 16 13 19 19 20 19 17 18 14 14 13 12 12 13 12
3 4 3 5 6 4 3 7 6 9 10 6 12 15 17 19 22 21 20 23 16 18 20 14 4 3 3 9 13 14 11 12 14 15 17 11 20 21 20 19 19 18 15 14 14 14 12 12 11
Wind_Direction
321 301 213 322 46 81 248 255 241 280 51 305 65 80 81 52 50 130 310 109 115 134 138 136 135 133 137 138 135 135 134 131 126 126 124 123 121 109 102 107 115 120 126 129 127 121 110 101 87
324 304 168 271 109 282 266 247 275 280 85 9 49 70 81 80 78 78 44 137 135 139 141 136 139 138 140 137 136 138 140 137 133 133 133 132 130 125 123 123 124 129 133 135 133 124 116 109 81
286 255 66 156 191 206 250 250 294 39 62 43 17 38 87 111 64 121 174 132 134 138 139 143 142 144 147 144 142 147 148 147 140 140 142 140 138 134 135 136 137 141 143 144 141 136 133 112 81
306 333 326 58 266 265 249 277 291 10 13 44 75 80 69 96 113 146 132 134 130 141 131 137 139 144 152 150 145 150 154 154 147 144 149 148 144 139 141 143 149 153 157 157 155 149 142 132 94
209 284 242 246 259 258 270 270 279 52 21 1 11 29 96 87 89 106 134 131 138 144 141 140 141 145 155 156 152 152 159 160 154 148 151 151 146 144 144 149 154 161 166 164 167 171 175 163 213
329 136 7 247 262 265 275 355 92 46 31 354 33 11 163 114 75 38 31 83 136 142 147 147 150 150 151 163 160 159 159 162 161 155 156 154 152 153 153 158 164 169 173 186 197 200 194 202 235
173 6 249 276 288 306 336 78 77 71 29 355 57 15 58 89 77 51 356 357 129 141 138 141 149 150 151 159 165 165 163 161 164 161 157 155 155 158 162 164 170 175 182 200 215 232 226 229 244
175 94 304 278 271 281 5 8 52 69 18 352 76 12 268 286 30 21 4 335 118 138 135 140 146 150 151 160 175 168 171 166 162 162 160 158 159 164 165 167 177 180 191 201 218 236 247 247 260
24 30 260 269 316 291 348 15 350 353 54 339 343 274 283 307 30 9 10 318 13 152 154 156 156 162 158 154 175 173 174 171 162 162 162 157 157 161 170 177 183 189 199 207 220 231 245 255 268
137 169 237 274 4 355 344 7 330 8 353 340 343 323 325 330 14 356 316 247 292 171 171 165 160 163 160 163 162 173 175 176 169 161 160 157 156 168 177 189 190 194 206 214 227 235 240 250 255
216 217 275 300 342 18 332 336 333 356 337 311 299 306 324 344 338 344 337 318 272 287 167 170 170 169 166 164 155 163 173 170 178 172 164 172 171 184 184 187 196 187 212 222 235 243 233 230 229
177 266 279 284 300 356 298 288 305 283 258 252 269 280 293 298 299 304 310 304 316 321 38 194 171 169 172 155 161 167 174 174 182 185 179 180 181 181 179 174 190 190 200 213 231 227 229 234 242
347 318 311 316 324 311 314 293 272 272 264 260 257 256 257 258 263 276 278 288 297 306 75 27 169 185 176 170 165 167 177 178 185 183 183 189 186 187 176 184 189 193 197 201 224 216 224 237 249
314 309 297 301 287 278 258 259 231 264 266 267 256 248 230 227 220 231 255 260 278 284 283 175 190 168 196 192 173 173 175 180 175 188 186 190 196 193 190 189 192 193 201 200 216 212 215 205 113
319 311 299 275 263 252 241 266 232 245 233 245 237 238 223 219 213 213 216 219 225 256 273 178 181 163 200 192 186 168 177 178 183 184 184 193 197 197 200 195 178 204 201 209 193 180 163 121 146
273 273 287 283 323 245 199 255 269 267 232 245 231 216 211 219 212 206 209 209 215 205 235 167 203 186 181 201 196 183 184 182 186 184 183 192 199 194 201 189 188 191 183 189 159 157 145 166 156
255 247 292 290 316 317 324 288 275 297 303 281 257 241 234 229 217 218 213 196 195 192 198 230 172 203 199 190 204 199 202 172 189 185 184 194 201 187 179 181 195 180 195 196 159 161 125 124 166
324 327 317 305 302 320 326 314 321 308 314 296 297 306 40 56 28 331 286 254 211 201 200 202 203 186 185 196 205 232 207 198 185 193 187 189 198 175 158 173 187 172 168 186 132 132 111 131 118
304 307 291 285 288 11 328 319 296 289 289 45 46 41 30 20 2 4 359 13 249 261 214 207 202 178 166 172 196 227 247 175 201 207 194 183 185 175 160 165 177 176 180 165 146 113 108 51 113
299 288 286 301 342 340 318 291 280 292 100 57 43 33 25 12 1 349 340 330 306 247 232 227 210 205 177 162 170 163 217 263 232 219 185 184 174 169 169 165 175 179 150 139 147 130 109 95 351
311 310 327 316 314 295 284 289 319 32 58 51 39 29 20 11 354 338 325 319 304 285 235 218 215 210 211 174 169 178 182 252 254 227 259 186 176 170 172 173 162 158 142 151 146 130 120 130 298
333 305 290 289 304 286 300 290 310 55 42 48 35 25 8 350 336 321 306 296 296 291 281 250 214 208 199 186 175 182 193 203 227 219 233 248 178 169 169 174 167 162 148 151 150 142 133 129 163
265 280 283 295 300 339 12 41 324 42 27 24 22 6 345 340 326 313 316 305 297 306 301 311 246 212 199 194 184 180 196 217 218 176 193 200 184 163 166 161 162 170 153 157 140 120 107 121 123
278 345 336 322 290 53 168 124 274 30 24 13 359 354 346 337 326 315 314 307 308 296 298 283 259 235 199 189 195 185 199 204 210 177 195 194 162 150 176 162 162 140 125 123 107 101 94 98 94
345 1 1 353 6 250 326 356 201 13 33 21 1 344 324 331 323 320 316 313 314 310 305 302 283 239 210 196 195 196 199 204 208 181 183 164 164 162 193 154 138 126 124 115 111 101 94 85 87
326 110 150 254 296 289 303 179 56 49 48 10 354 334 332 334 324 314 305 310 306 303 293 286 275 253 222 200 202 193 198 209 205 188 173 179 170 168 175 138 124 126 120 111 108 102 94 89 84
314 12 130 103 344 352 257 175 229 16 14 8 355 340 333 334 329 321 314 312 299 285 275 268 246 261 225 208 195 201 198 209 207 192 188 173 158 166 167 129 128 124 117 114 109 105 101 89 79
110 16 336 63 319 297 297 322 336 0 3 352 349 342 339 333 329 321 316 314 310 308 263 256 232 234 232 209 197 197 203 204 205 192 191 185 165 168 139 131 129 121 115 113 112 109 108 102 92
35 14 247 145 113 224 305 280 95 357 8 352 336 332 338 333 327 324 318 319 316 319 322 245 243 252 204 196 192 195 202 201 201 191 192 179 159 143 140 134 126 119 113 110 107 103 105 104 107
23 286 57 103 279 200 221 271 284 29 9 8 332 336 338 340 331 326 324 330 340 328 334 345 316 131 23 193 192 196 204 202 199 189 193 146 151 137 133 128 120 117 113 115 116 116 109 104 94